Back to catalog

STARLINK-4134

AliveCommunicationsVLEO
NORAD 53254·PAYLOAD·🇺🇸 United States

Launched Jul 24, 2022 from Cape Canaveral Space Force Station

Loading…

Next Passes (next 24 hours)

TLE

FreshSource: CelesTrak SupGP

Epoch: Sep 14, 2026, 14:27 UTC

1 53254C 22086N   26257.60256944 -.00032114  00000+0 -10326-2 0  2578
2 53254  53.1587  61.2596 0001269  93.8092 144.2678 15.31722114    18

Track STARLINK-4134 in real time with AllMySat

Download on the App Store